| time (UTC) | temp F | wind direction | speed MPH | gust MPH | rain 1hr in | rain 24hr in | rain mn in | humidity % | barometer mb |
| 20260906021030 | 55 | 88 | 0.0 | 1.0 | 0.00 | 0.00 | 0.00 | 81 | 1018.5 |
| 20260906020534 | 55 | 65 | 0.0 | 1.0 | 0.00 | 0.00 | 0.00 | 81 | 1018.6 |
| 20260906020048 | 56 | 0 | 0.0 | 1.0 | 0.00 | 0.00 | 0.00 | 80 | 1018.7 |
| 20260906015530 | 56 | 95 | 0.0 | 1.0 | 0.00 | 0.00 | 0.00 | 80 | 1018.9 |
| 20260906015030 | 56 | 90 | 0.0 | 1.0 | 0.00 | 0.00 | 0.00 | 80 | 1018.9 |
| 20260906014553 | 56 | 0 | 0.0 | 1.0 | 0.00 | 0.00 | 0.00 | 80 | 1019.0 |
| 20260906014032 | 56 | 74 | 0.0 | 1.0 | 0.00 | 0.00 | 0.00 | 80 | 1018.9 |
| 20260906013600 | 56 | 85 | 0.0 | 2.0 | 0.00 | 0.00 | 0.00 | 80 | 1018.9 |
| 20260906013048 | 56 | 0 | 0.0 | 2.0 | 0.00 | 0.00 | 0.00 | 80 | 1019.1 |
| 20260906012530 | 56 | 73 | 1.0 | 2.0 | 0.00 | 0.00 | 0.00 | 80 | 1019.1 |
| 20260906012030 | 56 | 89 | 1.0 | 2.0 | 0.00 | 0.00 | 0.00 | 80 | 1019.1 |
| 20260906011555 | 56 | 72 | 0.0 | 2.0 | 0.00 | 0.00 | 0.00 | 80 | 1019.2 |
| 20260906011032 | 56 | 96 | 0.0 | 1.0 | 0.00 | 0.00 | 0.00 | 80 | 1019.3 |
| 20260906010532 | 56 | 83 | 0.0 | 1.0 | 0.00 | 0.00 | 0.00 | 81 | 1019.3 |
| 20260906010054 | 56 | 77 | 0.0 | 1.0 | 0.00 | 0.00 | 0.00 | 81 | 1019.4 |
| 20260906005531 | 55 | 93 | 0.0 | 2.0 | 0.00 | 0.00 | 0.00 | 81 | 1019.6 |
| 20260906005031 | 55 | 0 | 0.0 | 2.0 | 0.00 | 0.00 | 0.00 | 81 | 1019.6 |
| 20260906004549 | 55 | 0 | 0.0 | 1.0 | 0.00 | 0.00 | 0.00 | 81 | 1019.7 |
| 20260906004032 | 55 | 0 | 0.0 | 1.0 | 0.00 | 0.00 | 0.00 | 81 | 1019.9 |
| 20260906003531 | 55 | 0 | 0.0 | 1.0 | 0.00 | 0.00 | 0.00 | 81 | 1019.9 |
| 20260906003047 | 55 | 100 | 0.0 | 1.0 | 0.00 | 0.00 | 0.00 | 81 | 1019.9 |
| 20260906002530 | 56 | 0 | 0.0 | 1.0 | 0.00 | 0.00 | 0.00 | 81 | 1020.1 |
| 20260906002031 | 56 | 0 | 0.0 | 1.0 | 0.00 | 0.00 | 0.00 | 81 | 1020.1 |
| 20260906001555 | 55 | 0 | 0.0 | 1.0 | 0.00 | 0.00 | 0.00 | 82 | 1020.1 |
| 20260906001030 | 55 | 101 | 0.0 | 1.0 | 0.00 | 0.00 | 0.00 | 82 | 1020.2 |
| 20260906000530 | 55 | 38 | 0.0 | 1.0 | 0.00 | 0.00 | 0.00 | 82 | 1020.4 |
| 20260906000053 | 55 | 0 | 0.0 | 1.0 | 0.00 | 0.00 | 0.00 | 82 | 1020.4 |
| 20260905235530 | 55 | 0 | 0.0 | 1.0 | 0.00 | 0.00 | 0.00 | 82 | 1020.3 |
| 20260905235033 | 55 | 0 | 0.0 | 1.0 | 0.00 | 0.00 | 0.00 | 82 | 1020.3 |
| 20260905234553 | 55 | 0 | 0.0 | 3.0 | 0.00 | 0.00 | 0.00 | 82 | 1020.5 |
| 20260905234031 | 55 | 0 | 0.0 | 3.0 | 0.00 | 0.00 | 0.00 | 82 | 1020.5 |
| 20260905233532 | 55 | 68 | 0.0 | 1.0 | 0.00 | 0.00 | 0.00 | 82 | 1020.4 |
| 20260905233053 | 55 | 0 | 0.0 | 0.0 | 0.00 | 0.00 | 0.00 | 82 | 1020.5 |
| 20260905232530 | 55 | 0 | 0.0 | 1.0 | 0.00 | 0.00 | 0.00 | 82 | 1020.5 |
| 20260905232031 | 55 | 0 | 0.0 | 1.0 | 0.00 | 0.00 | 0.00 | 82 | 1020.5 |
| 20260905231543 | 55 | 294 | 0.0 | 1.0 | 0.00 | 0.00 | 0.00 | 82 | 1020.7 |
| 20260905231031 | 55 | 0 | 0.0 | 1.0 | 0.00 | 0.00 | 0.00 | 82 | 1020.8 |
| 20260905230531 | 55 | 70 | 0.0 | 1.0 | 0.00 | 0.00 | 0.00 | 82 | 1020.8 |
| 20260905230049 | 55 | 0 | 0.0 | 1.0 | 0.00 | 0.00 | 0.00 | 82 | 1020.8 |
| 20260905225535 | 55 | 65 | 0.0 | 1.0 | 0.00 | 0.00 | 0.00 | 83 | 1020.8 |
| 20260905225030 | 55 | 0 | 0.0 | 1.0 | 0.00 | 0.00 | 0.00 | 83 | 1020.9 |
| 20260905224542 | 55 | 0 | 0.0 | 1.0 | 0.00 | 0.00 | 0.00 | 83 | 1020.9 |
| 20260905224032 | 55 | 0 | 0.0 | 1.0 | 0.00 | 0.00 | 0.00 | 83 | 1021.1 |
| 20260905223531 | 54 | 0 | 0.0 | 1.0 | 0.00 | 0.00 | 0.00 | 83 | 1020.9 |
| 20260905223112 | 54 | 0 | 0.0 | 1.0 | 0.00 | 0.00 | 0.00 | 83 | 1021.0 |
| 20260905222531 | 54 | 284 | 0.0 | 1.0 | 0.00 | 0.00 | 0.00 | 83 | 1021.1 |
| 20260905222030 | 54 | 0 | 0.0 | 1.0 | 0.00 | 0.00 | 0.00 | 83 | 1021.3 |
| 20260905221543 | 54 | 0 | 0.0 | 0.0 | 0.00 | 0.00 | 0.00 | 83 | 1021.3 |
| 20260905221031 | 54 | 0 | 0.0 | 1.0 | 0.00 | 0.00 | 0.00 | 83 | 1021.4 |
| 20260905220530 | 54 | 0 | 0.0 | 1.0 | 0.00 | 0.00 | 0.00 | 83 | 1021.4 |
| 20260905220052 | 54 | 0 | 0.0 | 1.0 | 0.00 | 0.00 | 0.00 | 83 | 1021.4 |
| 20260905215533 | 54 | 0 | 0.0 | 1.0 | 0.00 | 0.00 | 0.00 | 83 | 1021.4 |
| 20260905215031 | 54 | 0 | 0.0 | 0.0 | 0.00 | 0.00 | 0.00 | 82 | 1021.3 |
| 20260905214547 | 54 | 0 | 0.0 | 0.0 | 0.00 | 0.00 | 0.00 | 82 | 1021.4 |
| 20260905214034 | 54 | 0 | 0.0 | 0.0 | 0.00 | 0.00 | 0.00 | 82 | 1021.5 |
| 20260905213533 | 54 | 0 | 0.0 | 0.0 | 0.00 | 0.00 | 0.00 | 82 | 1021.5 |
| 20260905213047 | 55 | 0 | 0.0 | 0.0 | 0.00 | 0.00 | 0.00 | 82 | 1021.5 |
| 20260905212533 | 55 | 0 | 0.0 | 0.0 | 0.00 | 0.00 | 0.00 | 82 | 1021.5 |
| 20260905212034 | 55 | 0 | 0.0 | 0.0 | 0.00 | 0.00 | 0.00 | 81 | 1021.5 |
| 20260905211606 | 55 | 0 | 0.0 | 0.0 | 0.00 | 0.00 | 0.00 | 81 | 1021.5 |
| 20260905211032 | 55 | 0 | 0.0 | 0.0 | 0.00 | 0.00 | 0.00 | 81 | 1021.5 |
| 20260905210531 | 55 | 0 | 0.0 | 0.0 | 0.00 | 0.00 | 0.00 | 81 | 1021.7 |
| 20260905210059 | 55 | 0 | 0.0 | 0.0 | 0.00 | 0.00 | 0.00 | 81 | 1021.7 |
| 20260905205533 | 55 | 0 | 0.0 | 1.0 | 0.00 | 0.00 | 0.00 | 81 | 1021.8 |
| 20260905205033 | 55 | 0 | 0.0 | 1.0 | 0.00 | 0.00 | 0.00 | 81 | 1021.9 |
| 20260905204547 | 55 | 0 | 0.0 | 0.0 | 0.00 | 0.00 | 0.00 | 80 | 1021.9 |
| 20260905204032 | 55 | 0 | 0.0 | 0.0 | 0.00 | 0.00 | 0.00 | 80 | 1021.8 |
| 20260905203537 | 56 | 0 | 0.0 | 0.0 | 0.00 | 0.00 | 0.00 | 80 | 1021.7 |
| 20260905203044 | 56 | 0 | 0.0 | 0.0 | 0.00 | 0.00 | 0.00 | 80 | 1021.6 |
| 20260905202536 | 56 | 0 | 0.0 | 0.0 | 0.00 | 0.00 | 0.00 | 80 | 1021.6 |
| 20260905202032 | 56 | 0 | 0.0 | 1.0 | 0.00 | 0.00 | 0.00 | 80 | 1021.4 |
| 20260905201556 | 56 | 0 | 0.0 | 1.0 | 0.00 | 0.00 | 0.00 | 80 | 1021.5 |
| 20260905201032 | 56 | 0 | 0.0 | 1.0 | 0.00 | 0.00 | 0.00 | 80 | 1021.4 |
| 20260905200532 | 56 | 0 | 0.0 | 1.0 | 0.00 | 0.00 | 0.00 | 79 | 1021.5 |
| 20260905200105 | 57 | 0 | 0.0 | 1.0 | 0.00 | 0.00 | 0.00 | 79 | 1021.5 |
| 20260905195533 | 57 | 0 | 0.0 | 1.0 | 0.00 | 0.00 | 0.00 | 79 | 1021.5 |
| 20260905195032 | 57 | 0 | 0.0 | 1.0 | 0.00 | 0.00 | 0.00 | 79 | 1021.5 |
| 20260905194548 | 57 | 0 | 0.0 | 0.0 | 0.00 | 0.00 | 0.00 | 79 | 1021.6 |
| 20260905194032 | 57 | 0 | 0.0 | 0.0 | 0.00 | 0.00 | 0.00 | 79 | 1021.6 |
| 20260905193531 | 57 | 0 | 0.0 | 0.0 | 0.00 | 0.00 | 0.00 | 79 | 1021.6 |
| 20260905193044 | 57 | 0 | 0.0 | 0.0 | 0.00 | 0.00 | 0.00 | 78 | 1021.5 |
| 20260905192536 | 57 | 0 | 0.0 | 1.0 | 0.00 | 0.00 | 0.00 | 78 | 1021.5 |
| 20260905192032 | 57 | 0 | 0.0 | 1.0 | 0.00 | 0.00 | 0.00 | 78 | 1021.5 |
| 20260905191550 | 57 | 0 | 0.0 | 1.0 | 0.00 | 0.00 | 0.00 | 78 | 1021.5 |
| 20260905191032 | 57 | 0 | 0.0 | 0.0 | 0.00 | 0.00 | 0.00 | 78 | 1021.4 |
| 20260905190532 | 57 | 0 | 0.0 | 1.0 | 0.00 | 0.00 | 0.00 | 78 | 1021.5 |
| 20260905190053 | 58 | 0 | 0.0 | 1.0 | 0.00 | 0.00 | 0.00 | 78 | 1021.5 |
| 20260905185533 | 58 | 0 | 0.0 | 1.0 | 0.00 | 0.00 | 0.00 | 78 | 1021.4 |
| 20260905185035 | 58 | 0 | 0.0 | 1.0 | 0.00 | 0.00 | 0.00 | 78 | 1021.3 |
| 20260905184551 | 58 | 0 | 0.0 | 1.0 | 0.00 | 0.00 | 0.00 | 78 | 1021.3 |
| 20260905184034 | 58 | 0 | 0.0 | 1.0 | 0.00 | 0.00 | 0.00 | 77 | 1021.4 |
| 20260905183531 | 58 | 0 | 0.0 | 1.0 | 0.00 | 0.00 | 0.00 | 77 | 1021.4 |
| 20260905183057 | 58 | 0 | 0.0 | 1.0 | 0.00 | 0.00 | 0.00 | 77 | 1021.4 |
| 20260905182531 | 58 | 251 | 0.0 | 1.0 | 0.00 | 0.00 | 0.00 | 77 | 1021.3 |
| 20260905182030 | 58 | 279 | 0.0 | 1.0 | 0.00 | 0.00 | 0.00 | 77 | 1021.4 |
| 20260905181550 | 58 | 335 | 0.0 | 1.0 | 0.00 | 0.00 | 0.00 | 77 | 1021.3 |
| 20260905181030 | 58 | 257 | 0.0 | 1.0 | 0.00 | 0.00 | 0.00 | 77 | 1021.3 |
| 20260905180534 | 59 | 0 | 0.0 | 2.0 | 0.00 | 0.00 | 0.00 | 77 | 1021.3 |
| 20260905180058 | 59 | 276 | 0.0 | 2.0 | 0.00 | 0.00 | 0.00 | 76 | 1021.2 |
| 20260905175530 | 59 | 307 | 0.0 | 1.0 | 0.00 | 0.00 | 0.00 | 76 | 1021.3 |
| 20260905175031 | 59 | 264 | 0.0 | 1.0 | 0.00 | 0.00 | 0.00 | 76 | 1021.2 |
| 20260905174556 | 59 | 238 | 0.0 | 3.0 | 0.00 | 0.00 | 0.00 | 76 | 1021.1 |
| 20260905174030 | 59 | 259 | 0.0 | 3.0 | 0.00 | 0.00 | 0.00 | 76 | 1021.3 |
| 20260905173532 | 60 | 223 | 0.0 | 2.0 | 0.00 | 0.00 | 0.00 | 76 | 1021.3 |
| 20260905173100 | 60 | 214 | 0.0 | 2.0 | 0.00 | 0.00 | 0.00 | 76 | 1021.1 |
| 20260905172530 | 60 | 0 | 0.0 | 2.0 | 0.00 | 0.00 | 0.00 | 76 | 1021.1 |
| 20260905172030 | 60 | 270 | 0.0 | 2.0 | 0.00 | 0.00 | 0.00 | 76 | 1021.2 |
| 20260905171546 | 60 | 263 | 0.0 | 2.0 | 0.00 | 0.00 | 0.00 | 76 | 1021.0 |
| 20260905171033 | 60 | 301 | 0.0 | 1.0 | 0.00 | 0.00 | 0.00 | 76 | 1021.2 |
| 20260905170531 | 60 | 273 | 0.0 | 1.0 | 0.00 | 0.00 | 0.00 | 75 | 1021.1 |
| 20260905170054 | 60 | 272 | 0.0 | 2.0 | 0.00 | 0.00 | 0.00 | 75 | 1021.0 |
| 20260905165532 | 61 | 320 | 0.0 | 2.0 | 0.00 | 0.00 | 0.00 | 75 | 1021.1 |
| 20260905165030 | 61 | 255 | 0.0 | 2.0 | 0.00 | 0.00 | 0.00 | 74 | 1021.0 |
| 20260905164543 | 61 | 271 | 0.0 | 3.0 | 0.00 | 0.00 | 0.00 | 73 | 1020.9 |
| 20260905164033 | 60 | 266 | 1.0 | 3.0 | 0.00 | 0.00 | 0.00 | 73 | 1020.9 |
| 20260905163530 | 60 | 266 | 0.0 | 2.0 | 0.00 | 0.00 | 0.00 | 72 | 1020.9 |
| 20260905163048 | 60 | 276 | 0.0 | 4.0 | 0.00 | 0.00 | 0.00 | 72 | 1020.8 |
| 20260905162532 | 60 | 293 | 1.0 | 4.0 | 0.00 | 0.00 | 0.00 | 72 | 1020.9 |
| 20260905162030 | 60 | 289 | 1.0 | 2.0 | 0.00 | 0.00 | 0.00 | 72 | 1020.8 |
| 20260905161543 | 60 | 271 | 1.0 | 2.0 | 0.00 | 0.00 | 0.00 | 72 | 1020.7 |
| 20260905161031 | 60 | 345 | 0.0 | 3.0 | 0.00 | 0.00 | 0.00 | 72 | 1020.8 |
| 20260905160530 | 60 | 285 | 0.0 | 3.0 | 0.00 | 0.00 | 0.00 | 72 | 1020.7 |
| 20260905160055 | 60 | 255 | 1.0 | 3.0 | 0.00 | 0.00 | 0.00 | 72 | 1020.9 |
| 20260905155531 | 60 | 229 | 1.0 | 3.0 | 0.00 | 0.00 | 0.00 | 72 | 1020.9 |
| 20260905155030 | 60 | 235 | 1.0 | 3.0 | 0.00 | 0.00 | 0.00 | 72 | 1021.0 |
| 20260905154548 | 60 | 309 | 1.0 | 3.0 | 0.00 | 0.00 | 0.00 | 72 | 1020.9 |
| 20260905154034 | 60 | 284 | 1.0 | 3.0 | 0.00 | 0.00 | 0.00 | 71 | 1021.0 |
| 20260905153529 | 60 | 302 | 1.0 | 4.0 | 0.00 | 0.00 | 0.00 | 71 | 1020.9 |
| 20260905153055 | 60 | 314 | 1.0 | 4.0 | 0.00 | 0.00 | 0.00 | 71 | 1021.0 |
| 20260905152531 | 60 | 309 | 1.0 | 4.0 | 0.00 | 0.00 | 0.00 | 70 | 1021.0 |
| 20260905152032 | 61 | 274 | 1.0 | 3.0 | 0.00 | 0.00 | 0.00 | 71 | 1021.1 |
| 20260905151551 | 61 | 284 | 1.0 | 3.0 | 0.00 | 0.00 | 0.00 | 71 | 1021.1 |
| 20260905151035 | 61 | 275 | 1.0 | 3.0 | 0.00 | 0.00 | 0.00 | 71 | 1021.0 |
| 20260905150532 | 61 | 278 | 1.0 | 5.0 | 0.00 | 0.00 | 0.00 | 71 | 1021.1 |
| 20260905150050 | 61 | 308 | 1.0 | 5.0 | 0.00 | 0.00 | 0.00 | 72 | 1021.0 |
| 20260905145532 | 61 | 287 | 2.0 | 5.0 | 0.00 | 0.01 | 0.00 | 71 | 1021.0 |
| 20260905145032 | 61 | 281 | 1.0 | 4.0 | 0.00 | 0.01 | 0.00 | 71 | 1021.0 |
| 20260905144546 | 61 | 257 | 1.0 | 3.0 | 0.00 | 0.01 | 0.00 | 72 | 1021.2 |
| 20260905144031 | 61 | 229 | 0.0 | 4.0 | 0.00 | 0.01 | 0.00 | 72 | 1021.1 |
| 20260905143534 | 61 | 248 | 1.0 | 4.0 | 0.00 | 0.01 | 0.00 | 71 | 1021.0 |
| 20260905143054 | 62 | 264 | 1.0 | 3.0 | 0.00 | 0.01 | 0.00 | 71 | 1021.0 |
| 20260905142533 | 62 | 290 | 0.0 | 3.0 | 0.00 | 0.01 | 0.00 | 72 | 1021.0 |
| 20260905142032 | 62 | 284 | 0.0 | 3.0 | 0.00 | 0.01 | 0.00 | 71 | 1020.8 |
| 20260905141547 | 62 | 314 | 0.0 | 3.0 | 0.00 | 0.01 | 0.00 | 71 | 1020.9 |
| 20260905141033 | 61 | 257 | 1.0 | 3.0 | 0.00 | 0.01 | 0.00 | 71 | 1020.9 |
| 20260905140534 | 61 | 293 | 0.0 | 3.0 | 0.00 | 0.01 | 0.00 | 72 | 1020.9 |
| 20260905140057 | 61 | 284 | 0.0 | 5.0 | 0.00 | 0.01 | 0.00 | 71 | 1020.9 |
| 20260905135531 | 61 | 288 | 1.0 | 5.0 | 0.00 | 0.01 | 0.00 | 71 | 1021.0 |
| 20260905135033 | 61 | 259 | 1.0 | 5.0 | 0.00 | 0.01 | 0.00 | 70 | 1021.0 |
| 20260905134559 | 61 | 309 | 1.0 | 3.0 | 0.00 | 0.01 | 0.00 | 71 | 1021.0 |
| 20260905134032 | 61 | 319 | 1.0 | 3.0 | 0.00 | 0.01 | 0.00 | 72 | 1021.1 |
| 20260905133535 | 61 | 186 | 1.0 | 3.0 | 0.00 | 0.01 | 0.00 | 72 | 1021.0 |
| 20260905133054 | 61 | 291 | 1.0 | 3.0 | 0.00 | 0.01 | 0.00 | 72 | 1021.0 |
| 20260905132532 | 61 | 294 | 1.0 | 3.0 | 0.00 | 0.01 | 0.00 | 72 | 1020.8 |
| 20260905132034 | 61 | 298 | 1.0 | 3.0 | 0.00 | 0.01 | 0.00 | 71 | 1020.8 |
| 20260905131547 | 61 | 283 | 1.0 | 3.0 | 0.00 | 0.01 | 0.00 | 71 | 1020.7 |
| 20260905131031 | 61 | 323 | 0.0 | 3.0 | 0.00 | 0.01 | 0.00 | 70 | 1020.7 |
| 20260905130531 | 61 | 345 | 0.0 | 4.0 | 0.00 | 0.01 | 0.00 | 71 | 1020.7 |
| 20260905130053 | 61 | 260 | 1.0 | 4.0 | 0.00 | 0.01 | 0.00 | 70 | 1020.8 |
| 20260905125531 | 61 | 311 | 1.0 | 3.0 | 0.00 | 0.01 | 0.00 | 70 | 1020.7 |
| 20260905125032 | 61 | 311 | 0.0 | 3.0 | 0.00 | 0.01 | 0.00 | 70 | 1020.6 |
| 20260905124551 | 61 | 285 | 1.0 | 3.0 | 0.00 | 0.01 | 0.00 | 69 | 1020.5 |
| 20260905124033 | 62 | 264 | 1.0 | 3.0 | 0.00 | 0.01 | 0.00 | 70 | 1020.5 |
| 20260905123532 | 62 | 255 | 1.0 | 4.0 | 0.00 | 0.01 | 0.00 | 70 | 1020.5 |
| 20260905123049 | 62 | 325 | 1.0 | 4.0 | 0.00 | 0.01 | 0.00 | 69 | 1020.4 |
| 20260905122534 | 62 | 289 | 1.0 | 4.0 | 0.00 | 0.01 | 0.00 | 71 | 1020.3 |
| 20260905122033 | 61 | 299 | 1.0 | 4.0 | 0.00 | 0.01 | 0.00 | 72 | 1020.4 |
| 20260905121544 | 60 | 280 | 1.0 | 4.0 | 0.00 | 0.01 | 0.00 | 71 | 1020.5 |
| 20260905121032 | 60 | 302 | 2.0 | 4.0 | 0.00 | 0.01 | 0.00 | 71 | 1020.4 |
| 20260905120532 | 61 | 282 | 1.0 | 4.0 | 0.00 | 0.01 | 0.00 | 71 | 1020.4 |
| 20260905120045 | 61 | 271 | 1.0 | 4.0 | 0.00 | 0.01 | 0.00 | 71 | 1020.2 |
| 20260905115531 | 62 | 255 | 1.0 | 4.0 | 0.00 | 0.01 | 0.00 | 69 | 1020.3 |
| 20260905115034 | 62 | 302 | 2.0 | 4.0 | 0.00 | 0.01 | 0.00 | 69 | 1020.3 |
| 20260905114549 | 62 | 281 | 1.0 | 4.0 | 0.00 | 0.01 | 0.00 | 70 | 1020.2 |
| 20260905114035 | 61 | 271 | 1.0 | 4.0 | 0.00 | 0.01 | 0.00 | 70 | 1020.1 |
| 20260905113530 | 61 | 289 | 1.0 | 4.0 | 0.00 | 0.01 | 0.00 | 71 | 1020.2 |
| 20260905113045 | 61 | 316 | 1.0 | 4.0 | 0.00 | 0.01 | 0.00 | 72 | 1020.1 |
| 20260905112532 | 61 | 281 | 1.0 | 4.0 | 0.00 | 0.01 | 0.00 | 73 | 1019.9 |
| 20260905112032 | 60 | 270 | 1.0 | 4.0 | 0.00 | 0.01 | 0.00 | 73 | 1019.9 |
| 20260905111542 | 60 | 277 | 1.0 | 3.0 | 0.00 | 0.01 | 0.00 | 73 | 1019.8 |
| 20260905111031 | 59 | 269 | 1.0 | 4.0 | 0.00 | 0.01 | 0.00 | 73 | 1019.8 |
| 20260905110531 | 59 | 240 | 1.0 | 5.0 | 0.00 | 0.01 | 0.00 | 73 | 1019.9 |
| 20260905110107 | 59 | 303 | 1.0 | 5.0 | 0.00 | 0.01 | 0.00 | 72 | 1019.9 |
| 20260905105531 | 60 | 300 | 1.0 | 5.0 | 0.00 | 0.02 | 0.00 | 71 | 1019.9 |
| 20260905105031 | 60 | 282 | 1.0 | 6.0 | 0.00 | 0.02 | 0.00 | 70 | 1019.8 |
| 20260905104547 | 60 | 304 | 1.0 | 6.0 | 0.00 | 0.02 | 0.00 | 70 | 1019.6 |
| 20260905104036 | 60 | 289 | 2.0 | 6.0 | 0.00 | 0.02 | 0.00 | 70 | 1019.5 |
| 20260905103532 | 60 | 311 | 2.0 | 5.0 | 0.00 | 0.02 | 0.00 | 70 | 1019.5 |
| 20260905103050 | 60 | 271 | 2.0 | 4.0 | 0.00 | 0.02 | 0.00 | 70 | 1019.5 |
| 20260905102531 | 60 | 284 | 1.0 | 6.0 | 0.00 | 0.02 | 0.00 | 71 | 1019.4 |
| 20260905102031 | 60 | 259 | 2.0 | 6.0 | 0.00 | 0.02 | 0.00 | 71 | 1019.4 |
| 20260905101604 | 60 | 277 | 1.0 | 6.0 | 0.00 | 0.02 | 0.00 | 71 | 1019.5 |
| 20260905101031 | 60 | 266 | 2.0 | 6.0 | 0.00 | 0.02 | 0.00 | 72 | 1019.2 |
| 20260905100531 | 59 | 262 | 2.0 | 5.0 | 0.00 | 0.02 | 0.00 | 71 | 1019.1 |
| 20260905100053 | 59 | 255 | 2.0 | 5.0 | 0.00 | 0.02 | 0.00 | 73 | 1019.1 |
| 20260905095532 | 59 | 283 | 2.0 | 5.0 | 0.00 | 0.15 | 0.00 | 73 | 1019.0 |
| 20260905095031 | 59 | 294 | 2.0 | 4.0 | 0.00 | 0.15 | 0.00 | 74 | 1019.1 |
| 20260905094550 | 59 | 359 | 1.0 | 4.0 | 0.00 | 0.15 | 0.00 | 75 | 1019.1 |
| 20260905094031 | 59 | 241 | 1.0 | 5.0 | 0.00 | 0.15 | 0.00 | 74 | 1019.0 |
| 20260905093532 | 58 | 289 | 1.0 | 5.0 | 0.00 | 0.15 | 0.00 | 75 | 1019.0 |
| 20260905093057 | 58 | 295 | 2.0 | 6.0 | 0.00 | 0.15 | 0.00 | 75 | 1019.0 |
| 20260905092531 | 58 | 284 | 2.0 | 6.0 | 0.00 | 0.15 | 0.00 | 75 | 1019.0 |
| 20260905092031 | 58 | 304 | 1.0 | 5.0 | 0.00 | 0.15 | 0.00 | 76 | 1018.8 |
| 20260905091554 | 58 | 283 | 1.0 | 5.0 | 0.00 | 0.15 | 0.00 | 75 | 1018.8 |
| 20260905091032 | 58 | 304 | 2.0 | 4.0 | 0.00 | 0.15 | 0.00 | 76 | 1018.7 |
| 20260905090533 | 58 | 309 | 1.0 | 4.0 | 0.00 | 0.15 | 0.00 | 76 | 1018.9 |
| 20260905090046 | 58 | 299 | 1.0 | 4.0 | 0.00 | 0.15 | 0.00 | 76 | 1018.7 |
| 20260905085535 | 58 | 286 | 1.0 | 4.0 | 0.00 | 0.22 | 0.00 | 77 | 1018.7 |
| 20260905085032 | 58 | 290 | 1.0 | 4.0 | 0.00 | 0.22 | 0.00 | 77 | 1018.4 |
| 20260905084554 | 58 | 286 | 1.0 | 4.0 | 0.00 | 0.22 | 0.00 | 77 | 1018.3 |
| 20260905084032 | 57 | 280 | 1.0 | 4.0 | 0.00 | 0.22 | 0.00 | 78 | 1018.1 |
| 20260905083532 | 57 | 272 | 1.0 | 3.0 | 0.00 | 0.22 | 0.00 | 78 | 1018.1 |
| 20260905083042 | 57 | 279 | 1.0 | 3.0 | 0.00 | 0.22 | 0.00 | 78 | 1018.2 |
| 20260905082531 | 56 | 279 | 0.0 | 2.0 | 0.00 | 0.22 | 0.00 | 78 | 1017.9 |
| 20260905082031 | 56 | 240 | 0.0 | 3.0 | 0.00 | 0.22 | 0.00 | 78 | 1018.0 |
| 20260905081550 | 56 | 294 | 1.0 | 3.0 | 0.00 | 0.22 | 0.00 | 77 | 1017.9 |
| 20260905081031 | 57 | 285 | 0.0 | 4.0 | 0.00 | 0.22 | 0.00 | 78 | 1017.7 |
| 20260905080531 | 56 | 278 | 1.0 | 4.0 | 0.00 | 0.22 | 0.00 | 78 | 1017.7 |
| 20260905080050 | 56 | 311 | 1.0 | 3.0 | 0.00 | 0.22 | 0.00 | 78 | 1017.6 |
| 20260905075531 | 56 | 217 | 1.0 | 3.0 | 0.00 | 0.25 | 0.00 | 78 | 1017.5 |
| 20260905075031 | 56 | 0 | 1.0 | 3.0 | 0.00 | 0.25 | 0.00 | 78 | 1017.4 |
| 20260905074544 | 56 | 269 | 1.0 | 3.0 | 0.00 | 0.25 | 0.00 | 78 | 1017.3 |
| 20260905074032 | 56 | 319 | 1.0 | 3.0 | 0.00 | 0.25 | 0.00 | 78 | 1017.3 |
| 20260905073531 | 56 | 316 | 1.0 | 3.0 | 0.00 | 0.25 | 0.00 | 78 | 1017.3 |
| 20260905073044 | 56 | 290 | 1.0 | 3.0 | 0.00 | 0.25 | 0.00 | 78 | 1017.2 |
| 20260905072532 | 56 | 275 | 1.0 | 3.0 | 0.00 | 0.25 | 0.00 | 78 | 1017.2 |
| 20260905072034 | 56 | 256 | 1.0 | 2.0 | 0.00 | 0.25 | 0.00 | 78 | 1017.1 |
| 20260905071542 | 56 | 283 | 0.0 | 5.0 | 0.00 | 0.25 | 0.00 | 78 | 1017.0 |
| 20260905071031 | 55 | 284 | 1.0 | 5.0 | 0.00 | 0.25 | 0.00 | 78 | 1016.8 |
| 20260905070531 | 55 | 262 | 2.0 | 5.0 | 0.00 | 0.25 | 0.00 | 77 | 1016.8 |
| 20260905070052 | 55 | 282 | 2.0 | 5.0 | 0.00 | 0.25 | 0.00 | 77 | 1016.7 |
| 20260905065532 | 55 | 281 | 1.0 | 4.0 | 0.00 | 0.26 | 0.00 | 78 | 1016.6 |
| 20260905065033 | 55 | 311 | 1.0 | 3.0 | 0.00 | 0.26 | 0.00 | 78 | 1016.6 |
| 20260905064546 | 55 | 281 | 1.0 | 3.0 | 0.00 | 0.26 | 0.00 | 78 | 1016.6 |
| 20260905064034 | 55 | 242 | 1.0 | 3.0 | 0.00 | 0.26 | 0.00 | 78 | 1016.6 |
| 20260905063533 | 55 | 302 | 1.0 | 3.0 | 0.00 | 0.26 | 0.00 | 78 | 1016.4 |
| 20260905063052 | 54 | 301 | 1.0 | 2.0 | 0.00 | 0.26 | 0.00 | 78 | 1016.4 |
| 20260905062531 | 54 | 234 | 1.0 | 3.0 | 0.00 | 0.26 | 0.00 | 78 | 1016.4 |
| 20260905062031 | 54 | 286 | 1.0 | 3.0 | 0.00 | 0.26 | 0.00 | 77 | 1016.4 |
| 20260905061551 | 54 | 291 | 1.0 | 3.0 | 0.00 | 0.26 | 0.00 | 77 | 1016.4 |
| 20260905061031 | 54 | 229 | 1.0 | 3.0 | 0.00 | 0.26 | 0.00 | 78 | 1016.2 |
| 20260905060531 | 54 | 243 | 0.0 | 3.0 | 0.00 | 0.26 | 0.00 | 78 | 1016.2 |
| 20260905060053 | 54 | 266 | 0.0 | 2.0 | 0.00 | 0.26 | 0.00 | 78 | 1016.2 |
| 20260905055532 | 54 | 252 | 0.0 | 5.0 | 0.00 | 0.29 | 0.00 | 77 | 1016.0 |
| 20260905055031 | 54 | 282 | 1.0 | 5.0 | 0.00 | 0.29 | 0.00 | 77 | 1015.8 |
| 20260905054553 | 54 | 283 | 1.0 | 6.0 | 0.00 | 0.29 | 0.00 | 77 | 1015.6 |
| 20260905054030 | 54 | 288 | 2.0 | 6.0 | 0.00 | 0.29 | 0.00 | 77 | 1015.6 |
| 20260905053531 | 55 | 304 | 2.0 | 6.0 | 0.00 | 0.29 | 0.00 | 77 | 1015.5 |
| 20260905053046 | 55 | 242 | 2.0 | 7.0 | 0.00 | 0.29 | 0.00 | 77 | 1015.5 |
| 20260905052531 | 55 | 267 | 1.0 | 7.0 | 0.00 | 0.29 | 0.00 | 77 | 1015.3 |
| 20260905052031 | 55 | 294 | 1.0 | 5.0 | 0.00 | 0.29 | 0.00 | 77 | 1015.3 |
| 20260905051550 | 55 | 221 | 1.0 | 3.0 | 0.00 | 0.29 | 0.00 | 77 | 1015.2 |
| 20260905051031 | 55 | 257 | 2.0 | 4.0 | 0.00 | 0.29 | 0.00 | 77 | 1015.1 |
| 20260905050531 | 55 | 282 | 0.0 | 4.0 | 0.00 | 0.29 | 0.00 | 77 | 1015.0 |
| 20260905050043 | 54 | 300 | 1.0 | 4.0 | 0.00 | 0.29 | 0.00 | 78 | 1015.0 |
| 20260905045531 | 54 | 291 | 1.0 | 4.0 | 0.00 | 0.29 | 0.00 | 78 | 1015.0 |
| 20260905045033 | 54 | 297 | 1.0 | 4.0 | 0.00 | 0.29 | 0.00 | 78 | 1014.9 |
| 20260905044547 | 54 | 314 | 1.0 | 4.0 | 0.00 | 0.29 | 0.00 | 78 | 1014.9 |
| 20260905044030 | 54 | 274 | 1.0 | 4.0 | 0.00 | 0.29 | 0.00 | 77 | 1014.8 |
| 20260905043530 | 54 | 259 | 1.0 | 3.0 | 0.00 | 0.29 | 0.00 | 77 | 1014.9 |
| 20260905043055 | 54 | 309 | 1.0 | 3.0 | 0.00 | 0.29 | 0.00 | 77 | 1014.7 |
| 20260905042532 | 54 | 288 | 1.0 | 3.0 | 0.00 | 0.29 | 0.00 | 77 | 1014.6 |
| 20260905042031 | 54 | 269 | 1.0 | 3.0 | 0.00 | 0.29 | 0.00 | 77 | 1014.7 |
| 20260905041554 | 54 | 283 | 1.0 | 4.0 | 0.00 | 0.29 | 0.00 | 77 | 1014.5 |
| 20260905041034 | 54 | 258 | 2.0 | 4.0 | 0.00 | 0.29 | 0.00 | 77 | 1014.7 |
| 20260905040531 | 54 | 290 | 1.0 | 4.0 | 0.00 | 0.29 | 0.00 | 77 | 1014.6 |
| 20260905040052 | 55 | 299 | 1.0 | 5.0 | 0.00 | 0.29 | 0.00 | 77 | 1014.4 |
| 20260905035530 | 55 | 269 | 2.0 | 5.0 | 0.00 | 0.30 | 0.00 | 77 | 1014.3 |
| 20260905035030 | 55 | 233 | 1.0 | 5.0 | 0.00 | 0.30 | 0.00 | 77 | 1014.3 |
| 20260905034543 | 55 | 299 | 2.0 | 7.0 | 0.00 | 0.30 | 0.00 | 77 | 1014.1 |
| 20260905034031 | 55 | 311 | 2.0 | 7.0 | 0.00 | 0.30 | 0.00 | 77 | 1013.9 |
| 20260905033531 | 54 | 269 | 2.0 | 7.0 | 0.00 | 0.30 | 0.00 | 77 | 1013.8 |
| 20260905033052 | 54 | 302 | 2.0 | 6.0 | 0.00 | 0.30 | 0.00 | 77 | 1013.8 |
| 20260905032530 | 54 | 216 | 2.0 | 6.0 | 0.00 | 0.30 | 0.00 | 78 | 1013.6 |
| 20260905032031 | 54 | 257 | 2.0 | 6.0 | 0.00 | 0.30 | 0.00 | 78 | 1013.8 |
| 20260905031553 | 54 | 255 | 2.0 | 6.0 | 0.00 | 0.30 | 0.00 | 77 | 1013.7 |
| 20260905031031 | 54 | 272 | 2.0 | 5.0 | 0.00 | 0.30 | 0.00 | 77 | 1013.7 |
| 20260905030531 | 54 | 281 | 2.0 | 6.0 | 0.00 | 0.30 | 0.00 | 78 | 1013.6 |
| 20260905030047 | 54 | 297 | 2.0 | 6.0 | 0.00 | 0.30 | 0.00 | 78 | 1013.7 |
| 20260905025533 | 54 | 290 | 1.0 | 5.0 | 0.00 | 0.33 | 0.00 | 78 | 1013.8 |
| 20260905025030 | 54 | 291 | 3.0 | 5.0 | 0.00 | 0.33 | 0.00 | 78 | 1013.6 |
| 20260905024543 | 54 | 257 | 2.0 | 5.0 | 0.00 | 0.33 | 0.00 | 78 | 1013.5 |
| 20260905024030 | 53 | 295 | 1.0 | 5.0 | 0.00 | 0.33 | 0.00 | 78 | 1013.5 |
| 20260905023532 | 53 | 271 | 1.0 | 3.0 | 0.00 | 0.33 | 0.00 | 78 | 1013.5 |
| 20260905023052 | 53 | 284 | 1.0 | 3.0 | 0.00 | 0.33 | 0.00 | 78 | 1013.3 |
| 20260905022532 | 53 | 283 | 1.0 | 4.0 | 0.00 | 0.33 | 0.00 | 78 | 1013.2 |
| 20260905022032 | 54 | 277 | 1.0 | 4.0 | 0.00 | 0.33 | 0.00 | 78 | 1013.2 |
| 20260905021549 | 54 | 274 | 2.0 | 6.0 | 0.00 | 0.33 | 0.00 | 78 | 1013.1 |